Time,TemperatureF,DewpointF,PressureIn,WindDirection,WindDirectionDegrees,WindSpeedMPH,WindSpeedGustMPH,Humidity,HourlyPrecipIn,Conditions,Clouds,dailyrainin,SolarRadiationWatts/m^2,SoftwareType,DateUTC
2013-05-01 00:02:00,61.0,55.0,-100.00,SW,227,1.0,2.0,81,0.00,,,-99.99,0.000000,,2013-05-01 05:02:00,
2013-05-01 00:32:00,60.0,56.0,-100.00,South,178,1.0,4.0,88,0.00,,,-99.99,0.000000,,2013-05-01 05:32:00,
2013-05-01 00:42:00,60.0,56.0,-100.00,South,178,1.0,4.0,88,0.00,,,-99.99,0.000000,,2013-05-01 05:42:00,
2013-05-01 00:52:00,60.0,56.0,-100.00,South,178,1.0,4.0,88,0.00,,,-99.99,0.000000,,2013-05-01 05:52:00,
2013-05-01 01:02:00,60.0,56.0,-100.00,South,178,1.0,4.0,88,0.00,,,-99.99,0.000000,,2013-05-01 06:02:00,
2013-05-01 01:32:00,60.0,53.0,-100.00,East,82,1.0,3.0,79,0.00,,,-99.99,0.000000,,2013-05-01 06:32:00,
2013-05-01 01:42:00,60.0,53.0,-100.00,East,82,1.0,3.0,79,0.00,,,-99.99,0.000000,,2013-05-01 06:42:00,
2013-05-01 01:52:00,60.0,53.0,-100.00,East,82,1.0,3.0,79,0.00,,,-99.99,0.000000,,2013-05-01 06:52:00,
2013-05-01 02:01:00,60.0,53.0,-100.00,East,82,1.0,3.0,79,0.00,,,-99.99,0.000000,,2013-05-01 07:01:00,
2013-05-01 02:32:00,57.0,55.0,-100.00,SSW,194,1.0,2.0,92,0.00,,,-99.99,0.000000,,2013-05-01 07:32:00,
2013-05-01 02:42:00,57.0,55.0,-100.00,SSW,194,1.0,2.0,92,0.00,,,-99.99,0.000000,,2013-05-01 07:42:00,
2013-05-01 02:52:00,57.0,55.0,-100.00,SSW,194,1.0,2.0,92,0.00,,,-99.99,0.000000,,2013-05-01 07:52:00,
2013-05-01 03:02:00,57.0,55.0,-100.00,SSW,194,1.0,2.0,92,0.00,,,-99.99,0.000000,,2013-05-01 08:02:00,
2013-05-01 03:32:00,56.0,54.0,-100.00,SW,223,1.0,4.0,93,0.00,,,0.00,0.000000,,2013-05-01 08:32:00,
2013-05-01 03:42:00,56.0,54.0,-100.00,SW,223,1.0,4.0,93,0.00,,,0.00,0.000000,,2013-05-01 08:42:00,
2013-05-01 03:53:00,56.0,54.0,-100.00,SW,223,1.0,4.0,93,0.00,,,0.00,0.000000,,2013-05-01 08:53:00,
2013-05-01 04:01:00,56.0,54.0,-100.00,SW,223,1.0,4.0,93,0.00,,,0.00,0.000000,,2013-05-01 09:01:00,
2013-05-01 04:33:00,56.0,54.0,-100.00,South,191,1.0,4.0,93,0.00,,,-99.99,0.000000,,2013-05-01 09:33:00,
2013-05-01 04:43:00,56.0,54.0,-100.00,South,191,1.0,4.0,93,0.00,,,-99.99,0.000000,,2013-05-01 09:43:00,
2013-05-01 04:53:00,56.0,54.0,-100.00,South,191,1.0,4.0,93,0.00,,,-99.99,0.000000,,2013-05-01 09:53:00,
2013-05-01 05:02:00,56.0,54.0,-100.00,South,191,1.0,4.0,93,0.00,,,-99.99,0.000000,,2013-05-01 10:02:00,
2013-05-01 05:33:00,58.0,56.0,-100.00,SSE,167,2.0,5.0,94,0.00,,,-99.99,0.000000,,2013-05-01 10:33:00,
2013-05-01 05:42:00,58.0,56.0,-100.00,SSE,167,2.0,5.0,94,0.00,,,-99.99,0.000000,,2013-05-01 10:42:00,
2013-05-01 05:53:00,58.0,56.0,-100.00,SSE,167,2.0,5.0,94,0.00,,,-99.99,0.000000,,2013-05-01 10:53:00,
2013-05-01 06:02:00,58.0,56.0,-100.00,SSE,167,2.0,5.0,94,0.00,,,-99.99,0.000000,,2013-05-01 11:02:00,
2013-05-01 06:32:00,58.0,57.0,-100.00,SE,137,1.0,4.0,95,0.00,,,-99.99,3.000000,,2013-05-01 11:32:00,
2013-05-01 06:42:00,58.0,57.0,-100.00,SE,137,1.0,4.0,95,0.00,,,-99.99,3.000000,,2013-05-01 11:42:00,
2013-05-01 06:52:00,58.0,57.0,-100.00,SE,137,1.0,4.0,95,0.00,,,-99.99,3.000000,,2013-05-01 11:52:00,
2013-05-01 07:01:00,58.0,57.0,-100.00,SE,137,1.0,4.0,95,0.00,,,-99.99,3.000000,,2013-05-01 12:01:00,
2013-05-01 08:32:00,66.0,60.0,-100.00,SSW,201,3.0,5.0,82,-99.99,,,-99.99,106.000000,,2013-05-01 13:32:00,
2013-05-01 08:42:00,66.0,60.0,-100.00,SSW,201,3.0,5.0,82,-99.99,,,-99.99,106.000000,,2013-05-01 13:42:00,
2013-05-01 08:52:00,66.0,60.0,-100.00,SSW,201,3.0,5.0,82,-99.99,,,-99.99,106.000000,,2013-05-01 13:52:00,
2013-05-01 09:02:00,66.0,60.0,-100.00,SSW,201,3.0,5.0,82,-99.99,,,-99.99,106.000000,,2013-05-01 14:02:00,
2013-05-01 09:32:00,69.0,60.0,-100.00,SSW,196,4.0,7.0,73,0.00,,,-99.99,281.000000,,2013-05-01 14:32:00,
2013-05-01 09:42:00,69.0,60.0,-100.00,SSW,196,4.0,7.0,73,0.00,,,-99.99,281.000000,,2013-05-01 14:42:00,
2013-05-01 09:52:00,69.0,60.0,-100.00,SSW,196,4.0,7.0,73,0.00,,,-99.99,281.000000,,2013-05-01 14:52:00,
2013-05-01 10:01:00,69.0,60.0,-100.00,SSW,196,4.0,7.0,73,0.00,,,-99.99,281.000000,,2013-05-01 15:01:00,
2013-05-01 10:33:00,71.0,59.0,-100.00,South,189,3.0,8.0,66,0.00,,,-99.99,379.000000,,2013-05-01 15:33:00,
2013-05-01 10:43:00,71.0,59.0,-100.00,South,189,3.0,8.0,66,0.00,,,-99.99,379.000000,,2013-05-01 15:43:00,
2013-05-01 10:53:00,71.0,59.0,-100.00,South,189,3.0,8.0,66,0.00,,,-99.99,379.000000,,2013-05-01 15:53:00,
2013-05-01 11:03:00,71.0,59.0,-100.00,South,189,3.0,8.0,66,0.00,,,-99.99,379.000000,,2013-05-01 16:03:00,
2013-05-01 11:32:00,78.0,61.0,-100.00,SW,217,4.0,7.0,55,0.00,,,0.00,663.000000,,2013-05-01 16:32:00,
2013-05-01 11:42:00,78.0,61.0,-100.00,SW,217,4.0,7.0,55,0.00,,,0.00,663.000000,,2013-05-01 16:42:00,
2013-05-01 11:53:00,78.0,61.0,-100.00,SW,217,4.0,7.0,55,0.00,,,0.00,663.000000,,2013-05-01 16:53:00,
2013-05-01 12:02:00,78.0,61.0,-100.00,SW,217,4.0,7.0,55,0.00,,,0.00,663.000000,,2013-05-01 17:02:00,
2013-05-01 12:32:00,81.0,59.0,-100.00,SE,127,3.0,8.0,47,0.00,,,-99.99,811.000000,,2013-05-01 17:32:00,
2013-05-01 12:42:00,81.0,59.0,-100.00,SE,127,3.0,8.0,47,0.00,,,-99.99,811.000000,,2013-05-01 17:42:00,
2013-05-01 12:52:00,81.0,59.0,-100.00,SE,127,3.0,8.0,47,0.00,,,-99.99,811.000000,,2013-05-01 17:52:00,
2013-05-01 13:01:00,81.0,59.0,-100.00,SE,127,3.0,8.0,47,0.00,,,-99.99,811.000000,,2013-05-01 18:01:00,
2013-05-01 13:32:00,79.0,56.0,-100.00,West,268,2.0,7.0,46,0.00,,,0.00,501.000000,,2013-05-01 18:32:00,
2013-05-01 13:42:00,79.0,56.0,-100.00,West,268,2.0,7.0,46,0.00,,,0.00,501.000000,,2013-05-01 18:42:00,
2013-05-01 13:52:00,79.0,56.0,-100.00,West,268,2.0,7.0,46,0.00,,,0.00,501.000000,,2013-05-01 18:52:00,
2013-05-01 14:02:00,79.0,56.0,-100.00,West,268,2.0,7.0,46,0.00,,,0.00,501.000000,,2013-05-01 19:02:00,
2013-05-01 14:32:00,80.0,61.0,-100.00,East,88,2.0,5.0,53,0.00,,,0.00,317.000000,,2013-05-01 19:32:00,
2013-05-01 14:43:00,80.0,61.0,-100.00,East,88,2.0,5.0,53,0.00,,,0.00,317.000000,,2013-05-01 19:43:00,
2013-05-01 14:52:00,80.0,61.0,-100.00,East,88,2.0,5.0,53,0.00,,,0.00,317.000000,,2013-05-01 19:52:00,
2013-05-01 15:01:00,80.0,61.0,-100.00,East,88,2.0,5.0,53,0.00,,,0.00,317.000000,,2013-05-01 20:01:00,
2013-05-01 15:32:00,81.0,58.0,-100.00,NE,54,3.0,7.0,46,0.00,,,0.00,362.000000,,2013-05-01 20:32:00,
2013-05-01 15:42:00,81.0,58.0,-100.00,NE,54,3.0,7.0,46,0.00,,,0.00,362.000000,,2013-05-01 20:42:00,
2013-05-01 15:52:00,81.0,58.0,-100.00,NE,54,3.0,7.0,46,0.00,,,0.00,362.000000,,2013-05-01 20:52:00,
2013-05-01 16:01:00,81.0,58.0,-100.00,NE,54,3.0,7.0,46,0.00,,,0.00,362.000000,,2013-05-01 21:01:00,
2013-05-01 16:32:00,80.0,58.0,-100.00,East,79,3.0,7.0,47,0.00,,,0.00,302.000000,,2013-05-01 21:32:00,
2013-05-01 16:43:00,80.0,58.0,-100.00,East,79,3.0,7.0,47,0.00,,,0.00,302.000000,,2013-05-01 21:43:00,
2013-05-01 16:53:00,80.0,58.0,-100.00,East,79,3.0,7.0,47,0.00,,,0.00,302.000000,,2013-05-01 21:53:00,
2013-05-01 17:03:00,80.0,58.0,-100.00,East,79,3.0,7.0,47,0.00,,,0.00,302.000000,,2013-05-01 22:03:00,
2013-05-01 17:33:00,78.0,59.0,-100.00,NE,47,2.0,6.0,52,0.00,,,0.00,241.000000,,2013-05-01 22:33:00,
2013-05-01 17:42:00,78.0,59.0,-100.00,NE,47,2.0,6.0,52,0.00,,,0.00,241.000000,,2013-05-01 22:42:00,
2013-05-01 17:53:00,78.0,59.0,-100.00,NE,47,2.0,6.0,52,0.00,,,0.00,241.000000,,2013-05-01 22:53:00,
2013-05-01 18:02:00,78.0,59.0,-100.00,NE,47,2.0,6.0,52,0.00,,,0.00,241.000000,,2013-05-01 23:02:00,
2013-05-01 18:32:00,76.0,60.0,-100.00,NE,54,1.0,5.0,57,0.00,,,0.00,123.000000,,2013-05-01 23:32:00,
2013-05-01 18:42:00,76.0,60.0,-100.00,NE,54,1.0,5.0,57,0.00,,,0.00,123.000000,,2013-05-01 23:42:00,
2013-05-01 18:52:00,76.0,60.0,-100.00,NE,54,1.0,5.0,57,0.00,,,0.00,123.000000,,2013-05-01 23:52:00,
2013-05-01 19:01:00,76.0,60.0,-100.00,NE,54,1.0,5.0,57,0.00,,,0.00,123.000000,,2013-05-02 00:01:00,
2013-05-01 20:32:00,69.0,60.0,-100.00,ESE,109,1.0,2.0,74,-99.99,,,0.00,3.000000,,2013-05-02 01:32:00,
2013-05-01 20:42:00,69.0,60.0,-100.00,ESE,109,1.0,2.0,74,-99.99,,,0.00,3.000000,,2013-05-02 01:42:00,
2013-05-01 20:52:00,69.0,60.0,-100.00,ESE,109,1.0,2.0,74,-99.99,,,0.00,3.000000,,2013-05-02 01:52:00,
2013-05-01 21:02:00,69.0,60.0,-100.00,ESE,109,1.0,2.0,74,-99.99,,,0.00,3.000000,,2013-05-02 02:02:00,
2013-05-01 21:32:00,67.0,60.0,-100.00,SSW,192,1.0,2.0,78,0.00,,,0.00,0.000000,,2013-05-02 02:32:00,
2013-05-01 21:42:00,67.0,60.0,-100.00,SSW,192,1.0,2.0,78,0.00,,,0.00,0.000000,,2013-05-02 02:42:00,
2013-05-01 21:51:00,67.0,60.0,-100.00,SSW,192,1.0,2.0,78,0.00,,,0.00,0.000000,,2013-05-02 02:51:00,
2013-05-01 22:01:00,67.0,60.0,-100.00,SSW,192,1.0,2.0,78,0.00,,,0.00,0.000000,,2013-05-02 03:01:00,
2013-05-01 22:33:00,67.0,58.0,-100.00,South,175,2.0,4.0,74,0.00,,,0.00,0.000000,,2013-05-02 03:33:00,
2013-05-01 22:43:00,67.0,58.0,-100.00,South,175,2.0,4.0,74,0.00,,,0.00,0.000000,,2013-05-02 03:43:00,
2013-05-01 22:53:00,67.0,58.0,-100.00,South,175,2.0,4.0,74,0.00,,,0.00,0.000000,,2013-05-02 03:53:00,
2013-05-01 23:03:00,67.0,58.0,-100.00,South,175,2.0,4.0,74,0.00,,,0.00,0.000000,,2013-05-02 04:03:00,
2013-05-01 23:33:00,65.0,58.0,-100.00,ESE,105,1.0,3.0,78,0.00,,,0.00,0.000000,,2013-05-02 04:33:00,
2013-05-01 23:43:00,65.0,58.0,-100.00,ESE,105,1.0,3.0,78,0.00,,,0.00,0.000000,,2013-05-02 04:43:00,
2013-05-01 23:52:00,65.0,58.0,-100.00,ESE,105,1.0,3.0,78,0.00,,,0.00,0.000000,,2013-05-02 04:52:00,